Location: Panama City
(9.1012°N, 79.4029°W)
Time: 03:55:03
(UTC-05:00)

ISS - Pass Details

Date: 22 September 2016
Orbit: 401 x 408 km, 51.6° (Epoch: 26 June)

Event Time Altitude Azimuth Distance (km) Brightness Sun altitude
Rises 19:42:37 0° 218° (SW) 2,304 0.5 -22.9°
Reaches altitude 10° 19:44:42 10° 219° (SW) 1,443 -0.6 -23.4°
Enters shadow 19:46:17 26° 222° (SW) 817 -2.0 -23.8°
